| time (UTC) | temp F | wind direction | speed knots | gust knots | rain 1hr in | rain 24hr in | rain mn in | humidity % | barometer mb |
| 20260506025005 | 50 | 46 | 7.8 | 15.6 | 0.00 | 0.00 | 0.00 | 79 | 1011.8 |
| 20260506024504 | 50 | 43 | 7.8 | 15.6 | 0.00 | 0.00 | 0.00 | 80 | 1011.8 |
| 20260506024005 | 50 | 40 | 7.8 | 16.5 | 0.00 | 0.00 | 0.00 | 80 | 1011.8 |
| 20260506023505 | 50 | 38 | 8.7 | 16.5 | 0.00 | 0.00 | 0.00 | 80 | 1012.1 |
| 20260506023004 | 50 | 39 | 7.8 | 15.6 | 0.00 | 0.00 | 0.00 | 80 | 1012.1 |
| 20260506022504 | 50 | 32 | 6.1 | 14.8 | 0.00 | 0.00 | 0.00 | 81 | 1012.0 |
| 20260506022004 | 50 | 26 | 7.0 | 13.0 | 0.00 | 0.00 | 0.00 | 81 | 1011.8 |
| 20260506021504 | 50 | 26 | 7.8 | 13.0 | 0.00 | 0.00 | 0.00 | 81 | 1011.7 |
| 20260506021004 | 50 | 25 | 7.8 | 13.0 | 0.00 | 0.00 | 0.00 | 81 | 1011.7 |
| 20260506020505 | 50 | 24 | 9.6 | 14.8 | 0.00 | 0.00 | 0.00 | 81 | 1011.6 |
| 20260506020005 | 50 | 21 | 9.6 | 14.8 | 0.00 | 0.00 | 0.00 | 81 | 1011.5 |
| 20260506015526 | 50 | 21 | 9.6 | 13.9 | 0.00 | 0.00 | 0.00 | 81 | 1011.5 |
| 20260506015005 | 50 | 22 | 9.6 | 14.8 | 0.00 | 0.00 | 0.00 | 80 | 1011.5 |
| 20260506014525 | 50 | 24 | 8.7 | 14.8 | 0.00 | 0.00 | 0.00 | 80 | 1011.4 |
| 20260506014005 | 50 | 23 | 9.6 | 14.8 | 0.00 | 0.00 | 0.00 | 80 | 1011.3 |
| 20260506013504 | 50 | 25 | 7.8 | 14.8 | 0.00 | 0.00 | 0.00 | 80 | 1011.2 |
| 20260506013004 | 50 | 33 | 6.1 | 14.8 | 0.00 | 0.00 | 0.00 | 79 | 1011.1 |
| 20260506012505 | 50 | 29 | 6.1 | 14.8 | 0.00 | 0.00 | 0.00 | 79 | 1011.2 |
| 20260506012026 | 50 | 24 | 7.8 | 15.6 | 0.00 | 0.00 | 0.00 | 79 | 1011.2 |
| 20260506011505 | 50 | 23 | 8.7 | 15.6 | 0.00 | 0.00 | 0.00 | 79 | 1011.1 |
| 20260506011004 | 50 | 26 | 7.8 | 14.8 | 0.00 | 0.00 | 0.00 | 79 | 1010.9 |
| 20260506010526 | 50 | 23 | 9.6 | 15.6 | 0.00 | 0.00 | 0.00 | 79 | 1010.9 |
| 20260506010005 | 51 | 23 | 8.7 | 15.6 | 0.00 | 0.00 | 0.00 | 78 | 1010.8 |
| 20260506005526 | 51 | 26 | 9.6 | 17.4 | 0.00 | 0.00 | 0.00 | 78 | 1010.7 |
| 20260506005004 | 51 | 27 | 10.4 | 17.4 | 0.00 | 0.00 | 0.00 | 78 | 1010.4 |
| 20260506004505 | 51 | 32 | 6.1 | 16.5 | 0.00 | 0.00 | 0.00 | 78 | 1010.2 |
| 20260506004005 | 51 | 30 | 6.1 | 13.0 | 0.00 | 0.00 | 0.00 | 78 | 1010.0 |
| 20260506003526 | 51 | 28 | 7.8 | 14.8 | 0.00 | 0.00 | 0.00 | 78 | 1009.9 |
| 20260506003005 | 51 | 24 | 9.6 | 17.4 | 0.00 | 0.00 | 0.00 | 78 | 1009.9 |
| 20260506002526 | 51 | 21 | 12.2 | 19.1 | 0.00 | 0.00 | 0.00 | 77 | 1009.9 |
| 20260506002005 | 51 | 21 | 11.3 | 19.1 | 0.00 | 0.00 | 0.00 | 77 | 1009.9 |
| 20260506001526 | 52 | 26 | 8.7 | 19.1 | 0.00 | 0.00 | 0.00 | 76 | 1009.8 |
| 20260506001005 | 52 | 29 | 8.7 | 15.6 | 0.00 | 0.00 | 0.00 | 76 | 1009.7 |
| 20260506000505 | 52 | 25 | 9.6 | 18.2 | 0.00 | 0.00 | 0.00 | 76 | 1010.0 |
| 20260506000004 | 52 | 25 | 8.7 | 18.2 | 0.00 | 0.00 | 0.00 | 76 | 1009.8 |
| 20260505235505 | 52 | 25 | 8.7 | 15.6 | 0.00 | 0.00 | 0.00 | 76 | 1009.7 |
| 20260505235005 | 52 | 22 | 10.4 | 15.6 | 0.00 | 0.00 | 0.00 | 75 | 1009.6 |
| 20260505234505 | 52 | 22 | 10.4 | 15.6 | 0.00 | 0.00 | 0.00 | 75 | 1009.5 |
| 20260505234026 | 52 | 23 | 9.6 | 13.9 | 0.00 | 0.00 | 0.00 | 75 | 1009.5 |
| 20260505233505 | 52 | 24 | 8.7 | 13.0 | 0.00 | 0.00 | 0.00 | 74 | 1009.9 |
| 20260505233004 | 52 | 27 | 8.7 | 18.2 | 0.00 | 0.00 | 0.00 | 74 | 1010.0 |
| 20260505232505 | 52 | 23 | 10.4 | 18.2 | 0.00 | 0.00 | 0.00 | 74 | 1010.2 |
| 20260505232004 | 52 | 20 | 11.3 | 19.1 | 0.00 | 0.00 | 0.00 | 73 | 1010.1 |
| 20260505231505 | 52 | 22 | 10.4 | 19.1 | 0.00 | 0.00 | 0.00 | 73 | 1010.1 |
| 20260505231025 | 52 | 20 | 11.3 | 17.4 | 0.00 | 0.00 | 0.00 | 73 | 1009.9 |
| 20260505230504 | 53 | 20 | 10.4 | 17.4 | 0.00 | 0.00 | 0.00 | 73 | 1009.6 |
| 20260505230005 | 53 | 23 | 11.3 | 17.4 | 0.00 | 0.00 | 0.00 | 73 | 1009.5 |
| 20260505225505 | 53 | 22 | 11.3 | 17.4 | 0.00 | 0.00 | 0.00 | 72 | 1009.4 |
| 20260505225005 | 53 | 21 | 10.4 | 16.5 | 0.00 | 0.00 | 0.00 | 72 | 1009.5 |
| 20260505224526 | 53 | 22 | 9.6 | 15.6 | 0.00 | 0.00 | 0.00 | 72 | 1009.5 |
| 20260505224004 | 54 | 29 | 9.6 | 16.5 | 0.00 | 0.00 | 0.00 | 72 | 1009.5 |
| 20260505223526 | 54 | 29 | 9.6 | 16.5 | 0.00 | 0.00 | 0.00 | 73 | 1009.3 |
| 20260505223004 | 54 | 28 | 7.8 | 15.6 | 0.00 | 0.00 | 0.00 | 73 | 1009.5 |
| 20260505222504 | 54 | 34 | 8.7 | 19.1 | 0.00 | 0.00 | 0.00 | 72 | 1009.3 |
| 20260505222005 | 54 | 30 | 10.4 | 19.1 | 0.00 | 0.00 | 0.00 | 72 | 1009.3 |
| 20260505221504 | 54 | 26 | 9.6 | 17.4 | 0.00 | 0.00 | 0.00 | 72 | 1009.0 |
| 20260505221025 | 54 | 29 | 8.7 | 18.2 | 0.00 | 0.00 | 0.00 | 72 | 1009.0 |
| 20260505220505 | 54 | 30 | 9.6 | 18.2 | 0.00 | 0.00 | 0.00 | 72 | 1008.8 |
| 20260505220004 | 55 | 30 | 10.4 | 16.5 | 0.00 | 0.00 | 0.00 | 72 | 1009.0 |
| 20260505215505 | 55 | 28 | 9.6 | 16.5 | 0.00 | 0.00 | 0.00 | 71 | 1009.0 |
| 20260505215004 | 55 | 26 | 9.6 | 19.1 | 0.00 | 0.00 | 0.00 | 71 | 1008.9 |
| 20260505214505 | 55 | 30 | 11.3 | 20.0 | 0.00 | 0.00 | 0.00 | 71 | 1008.5 |
| 20260505214005 | 55 | 29 | 11.3 | 20.0 | 0.00 | 0.00 | 0.00 | 71 | 1008.2 |
| 20260505213504 | 55 | 27 | 11.3 | 19.1 | 0.00 | 0.00 | 0.00 | 71 | 1008.2 |
| 20260505213004 | 55 | 25 | 11.3 | 19.1 | 0.00 | 0.00 | 0.00 | 71 | 1008.2 |
| 20260505212505 | 55 | 20 | 13.0 | 20.9 | 0.00 | 0.00 | 0.00 | 72 | 1008.4 |
| 20260505212004 | 55 | 20 | 13.0 | 20.9 | 0.00 | 0.00 | 0.00 | 71 | 1008.4 |
| 20260505211505 | 55 | 23 | 11.3 | 19.1 | 0.00 | 0.00 | 0.00 | 72 | 1008.7 |
| 20260505211004 | 55 | 32 | 11.3 | 21.7 | 0.00 | 0.00 | 0.00 | 72 | 1008.1 |
| 20260505210505 | 55 | 31 | 12.2 | 21.7 | 0.00 | 0.00 | 0.00 | 72 | 1008.1 |
| 20260505210004 | 55 | 27 | 13.0 | 20.9 | 0.00 | 0.00 | 0.00 | 73 | 1008.0 |
| 20260505205505 | 55 | 22 | 13.0 | 20.0 | 0.00 | 0.00 | 0.00 | 73 | 1007.9 |
| 20260505205004 | 55 | 19 | 12.2 | 20.0 | 0.00 | 0.00 | 0.00 | 73 | 1008.3 |
| 20260505204504 | 55 | 24 | 9.6 | 20.0 | 0.00 | 0.00 | 0.00 | 73 | 1049.6 |
| 20260505204005 | 55 | 25 | 8.7 | 17.4 | 0.00 | 0.00 | 0.00 | 73 | 1009.4 |
| 20260505203505 | 55 | 25 | 11.3 | 20.0 | 0.00 | 0.00 | 0.00 | 72 | 1009.0 |
| 20260505203026 | 55 | 26 | 12.2 | 20.0 | 0.00 | 0.00 | 0.00 | 73 | 1008.6 |
| 20260505202505 | 55 | 24 | 13.0 | 21.7 | 0.00 | 0.00 | 0.00 | 73 | 1008.2 |
| 20260505202005 | 56 | 21 | 13.0 | 21.7 | 0.00 | 0.00 | 0.00 | 73 | 1008.3 |
| 20260505201505 | 56 | 19 | 13.0 | 20.9 | 0.00 | 0.00 | 0.00 | 73 | 1008.0 |
| 20260505201026 | 56 | 20 | 13.0 | 20.0 | 0.00 | 0.00 | 0.00 | 73 | 1008.0 |
| 20260505200526 | 56 | 22 | 13.9 | 19.1 | 0.00 | 0.00 | 0.00 | 74 | 1007.9 |
| 20260505200005 | 56 | 22 | 12.2 | 19.1 | 0.00 | 0.00 | 0.00 | 74 | 1008.1 |
| 20260505195505 | 56 | 19 | 13.0 | 22.6 | 0.00 | 0.00 | 0.00 | 75 | 1008.1 |
| 20260505195004 | 55 | 17 | 13.9 | 22.6 | 0.00 | 0.00 | 0.00 | 74 | 1007.9 |
| 20260505194504 | 55 | 16 | 13.0 | 21.7 | 0.00 | 0.00 | 0.00 | 74 | 1008.1 |
| 20260505194005 | 56 | 22 | 12.2 | 19.1 | 0.00 | 0.00 | 0.00 | 75 | 1008.1 |
| 20260505193504 | 55 | 21 | 12.2 | 18.2 | 0.00 | 0.00 | 0.00 | 76 | 1008.0 |
| 20260505193004 | 55 | 16 | 12.2 | 18.2 | 0.00 | 0.00 | 0.00 | 76 | 1007.9 |
| 20260505192504 | 55 | 14 | 12.2 | 22.6 | 0.00 | 0.00 | 0.00 | 76 | 1008.0 |
| 20260505192004 | 55 | 12 | 13.0 | 22.6 | 0.00 | 0.00 | 0.00 | 76 | 1008.0 |
| 20260505191504 | 55 | 12 | 13.0 | 21.7 | 0.00 | 0.00 | 0.00 | 77 | 1007.8 |
| 20260505191004 | 55 | 12 | 12.2 | 20.0 | 0.00 | 0.00 | 0.00 | 77 | 1007.7 |
| 20260505190504 | 55 | 17 | 12.2 | 20.0 | 0.00 | 0.00 | 0.00 | 77 | 1007.7 |
| 20260505190004 | 56 | 17 | 11.3 | 17.4 | 0.00 | 0.00 | 0.00 | 77 | 1007.9 |
| 20260505185504 | 56 | 15 | 11.3 | 17.4 | 0.00 | 0.00 | 0.00 | 77 | 1007.9 |
| 20260505185004 | 56 | 18 | 11.3 | 17.4 | 0.00 | 0.00 | 0.00 | 76 | 1007.7 |
| 20260505184504 | 57 | 22 | 10.4 | 16.5 | 0.00 | 0.00 | 0.00 | 77 | 1007.6 |
| 20260505184004 | 57 | 24 | 10.4 | 17.4 | 0.00 | 0.00 | 0.00 | 77 | 1007.5 |
| 20260505183504 | 57 | 21 | 12.2 | 19.1 | 0.00 | 0.00 | 0.00 | 77 | 1007.5 |
| 20260505183004 | 57 | 19 | 13.9 | 20.9 | 0.00 | 0.00 | 0.00 | 76 | 1007.6 |
| 20260505182504 | 57 | 17 | 13.0 | 20.9 | 0.00 | 0.00 | 0.00 | 76 | 1007.5 |
| 20260505182004 | 58 | 21 | 12.2 | 19.1 | 0.00 | 0.00 | 0.00 | 76 | 1007.4 |
| 20260505181505 | 58 | 27 | 12.2 | 20.0 | 0.00 | 0.00 | 0.00 | 76 | 1007.4 |
| 20260505181004 | 58 | 24 | 13.0 | 20.0 | 0.00 | 0.00 | 0.00 | 76 | 1007.1 |
| 20260505180504 | 58 | 27 | 11.3 | 20.0 | 0.00 | 0.00 | 0.00 | 76 | 1007.0 |
| 20260505180004 | 58 | 34 | 9.6 | 17.4 | 0.00 | 0.00 | 0.00 | 77 | 1007.0 |
| 20260505175504 | 58 | 38 | 9.6 | 17.4 | 0.00 | 0.00 | 0.00 | 77 | 1007.0 |
| 20260505175025 | 58 | 32 | 10.4 | 19.1 | 0.00 | 0.00 | 0.00 | 77 | 1006.9 |
| 20260505174504 | 58 | 26 | 12.2 | 19.1 | 0.00 | 0.00 | 0.00 | 77 | 1006.7 |
| 20260505174004 | 58 | 28 | 11.3 | 19.1 | 0.00 | 0.00 | 0.00 | 78 | 1006.7 |
| 20260505173504 | 58 | 28 | 10.4 | 19.1 | 0.00 | 0.00 | 0.00 | 78 | 1006.6 |
| 20260505173025 | 58 | 30 | 10.4 | 19.1 | 0.00 | 0.00 | 0.00 | 78 | 1006.5 |
| 20260505172505 | 57 | 31 | 10.4 | 19.1 | 0.00 | 0.00 | 0.00 | 78 | 1006.5 |
| 20260505172004 | 57 | 22 | 12.2 | 20.9 | 0.00 | 0.00 | 0.00 | 79 | 1006.6 |
| 20260505171505 | 57 | 19 | 13.9 | 20.9 | 0.00 | 0.00 | 0.00 | 78 | 1006.4 |
| 20260505171005 | 58 | 20 | 13.0 | 20.9 | 0.00 | 0.00 | 0.00 | 79 | 1006.2 |
| 20260505170504 | 57 | 23 | 13.0 | 20.9 | 0.00 | 0.00 | 0.00 | 79 | 1006.1 |
| 20260505170004 | 57 | 23 | 14.8 | 22.6 | 0.00 | 0.00 | 0.00 | 79 | 1006.1 |
| 20260505165504 | 58 | 25 | 12.2 | 22.6 | 0.00 | 0.00 | 0.00 | 79 | 1006.0 |
| 20260505165025 | 58 | 28 | 11.3 | 20.0 | 0.00 | 0.00 | 0.00 | 80 | 1006.0 |
| 20260505164505 | 57 | 25 | 13.0 | 22.6 | 0.00 | 0.00 | 0.00 | 80 | 1005.9 |
| 20260505164025 | 58 | 24 | 12.2 | 22.6 | 0.00 | 0.00 | 0.00 | 80 | 1005.8 |
| 20260505163504 | 58 | 21 | 14.8 | 24.3 | 0.00 | 0.00 | 0.00 | 81 | 1005.5 |
| 20260505163026 | 58 | 20 | 16.5 | 24.3 | 0.00 | 0.00 | 0.00 | 80 | 1005.4 |
| 20260505162525 | 58 | 22 | 13.9 | 23.5 | 0.00 | 0.00 | 0.00 | 80 | 1005.3 |
| 20260505162025 | 58 | 24 | 12.2 | 20.0 | 0.00 | 0.00 | 0.00 | 81 | 1005.1 |
| 20260505161505 | 58 | 21 | 13.9 | 23.5 | 0.00 | 0.00 | 0.00 | 80 | 1004.8 |
| 20260505161004 | 58 | 18 | 15.6 | 24.3 | 0.00 | 0.00 | 0.00 | 80 | 1004.7 |
| 20260505160504 | 58 | 15 | 15.6 | 24.3 | 0.00 | 0.00 | 0.00 | 80 | 1004.5 |
| 20260505153004 | 62 | 19 | 14.8 | 24.3 | 0.00 | 0.00 | 0.00 | 80 | 1003.7 |
| 20260505152504 | 62 | 19 | 13.9 | 20.0 | 0.00 | 0.00 | 0.00 | 80 | 1003.5 |
| 20260505152004 | 63 | 21 | 14.8 | 24.3 | 0.00 | 0.00 | 0.00 | 79 | 1003.3 |
| 20260505151504 | 63 | 20 | 14.8 | 24.3 | 0.00 | 0.00 | 0.00 | 78 | 1003.2 |
| 20260505151004 | 64 | 16 | 13.9 | 20.9 | 0.00 | 0.00 | 0.00 | 77 | 1003.0 |
| 20260505150504 | 65 | 8 | 13.0 | 21.7 | 0.00 | 0.00 | 0.00 | 77 | 1002.8 |
| 20260505140504 | 70 | 91 | 4.3 | 9.6 | 0.00 | 0.00 | 0.00 | 81 | 1001.2 |
| 20260505125004 | 69 | 78 | 0.9 | 4.3 | 0.00 | 0.00 | 0.00 | 79 | 1001.0 |
| 20260505124526 | 70 | 72 | 0.0 | 1.7 | 0.00 | 0.00 | 0.00 | 79 | 1000.9 |
| 20260505124004 | 70 | 67 | 0.9 | 3.5 | 0.00 | 0.00 | 0.00 | 78 | 1000.7 |
| 20260505123504 | 70 | 64 | 0.9 | 3.5 | 0.00 | 0.00 | 0.00 | 78 | 1000.8 |
| 20260505123025 | 70 | 65 | 0.0 | 3.5 | 0.00 | 0.00 | 0.00 | 77 | 1000.8 |
| 20260505122505 | 70 | 0 | 0.0 | 0.0 | 0.00 | 0.00 | 0.00 | 76 | 1000.7 |
| 20260505122004 | 70 | 0 | 0.0 | 0.0 | 0.00 | 0.00 | 0.00 | 76 | 1000.6 |
| 20260505121504 | 70 | 0 | 0.0 | 0.0 | 0.00 | 0.00 | 0.00 | 75 | 1000.5 |
| 20260505121004 | 70 | 0 | 0.0 | 0.0 | 0.00 | 0.00 | 0.00 | 75 | 1000.3 |
| 20260505120504 | 70 | 6 | 0.0 | 1.7 | 0.00 | 0.00 | 0.00 | 75 | 1000.4 |
| 20260505120005 | 70 | 335 | 0.9 | 4.3 | 0.00 | 0.00 | 0.00 | 75 | 1000.2 |
| 20260505115504 | 71 | 316 | 1.7 | 6.1 | 0.00 | 0.00 | 0.00 | 75 | 1000.3 |
| 20260505115004 | 71 | 315 | 2.6 | 6.1 | 0.00 | 0.00 | 0.00 | 75 | 1000.3 |
| 20260505114504 | 71 | 322 | 1.7 | 6.1 | 0.00 | 0.00 | 0.00 | 74 | 1000.2 |
| 20260505114004 | 71 | 328 | 0.9 | 7.0 | 0.00 | 0.00 | 0.00 | 74 | 999.9 |
| 20260505113504 | 71 | 324 | 2.6 | 8.7 | 0.00 | 0.00 | 0.00 | 74 | 999.7 |
| 20260505113005 | 71 | 223 | 5.2 | 12.2 | 0.00 | 0.00 | 0.00 | 74 | 999.6 |
| 20260505112504 | 71 | 191 | 3.5 | 12.2 | 0.00 | 0.00 | 0.00 | 74 | 999.1 |
| 20260505112004 | 72 | 203 | 0.9 | 6.1 | 0.00 | 0.00 | 0.00 | 73 | 999.0 |
| 20260505111525 | 72 | 213 | 0.9 | 4.3 | 0.00 | 0.00 | 0.00 | 74 | 999.1 |
| 20260505111004 | 72 | 220 | 2.6 | 11.3 | 0.00 | 0.00 | 0.00 | 74 | 999.0 |
| 20260505110525 | 72 | 215 | 3.5 | 11.3 | 0.00 | 0.00 | 0.00 | 74 | 999.0 |
| 20260505102025 | 72 | 195 | 8.7 | 19.1 | 0.00 | 0.00 | 0.00 | 74 | 998.1 |
| 20260505101504 | 72 | 195 | 7.8 | 19.1 | 0.00 | 0.00 | 0.00 | 74 | 998.1 |
| 20260505101004 | 72 | 191 | 8.7 | 17.4 | 0.00 | 0.00 | 0.00 | 74 | 998.0 |
| 20260505100504 | 72 | 192 | 9.6 | 17.4 | 0.00 | 0.00 | 0.00 | 74 | 998.1 |
| 20260505100025 | 72 | 191 | 8.7 | 16.5 | 0.00 | 0.00 | 0.00 | 74 | 997.9 |
| 20260505095504 | 72 | 193 | 8.7 | 16.5 | 0.00 | 0.00 | 0.00 | 74 | 997.8 |
| 20260505095004 | 72 | 191 | 7.8 | 14.8 | 0.00 | 0.00 | 0.00 | 74 | 997.9 |
| 20260505094504 | 72 | 192 | 7.0 | 16.5 | 0.00 | 0.00 | 0.00 | 74 | 997.9 |
| 20260505094004 | 72 | 192 | 7.8 | 20.0 | 0.00 | 0.00 | 0.00 | 74 | 998.0 |
| 20260505093503 | 72 | 187 | 8.7 | 20.0 | 0.00 | 0.00 | 0.00 | 74 | 998.0 |
| 20260505093004 | 72 | 187 | 8.7 | 19.1 | 0.00 | 0.00 | 0.00 | 74 | 998.0 |
| 20260505092503 | 72 | 191 | 7.8 | 19.1 | 0.00 | 0.00 | 0.00 | 74 | 997.8 |
| 20260505092024 | 72 | 190 | 8.7 | 15.6 | 0.00 | 0.00 | 0.00 | 74 | 997.8 |
| 20260505091503 | 72 | 186 | 9.6 | 16.5 | 0.00 | 0.00 | 0.00 | 74 | 997.8 |
| 20260505091004 | 72 | 193 | 0.0 | 20.0 | 0.00 | 0.00 | 0.00 | 74 | 997.9 |
| 20260505090503 | 72 | 192 | 9.6 | 20.0 | 0.00 | 0.00 | 0.00 | 74 | 998.1 |
| 20260505090025 | 72 | 187 | 9.6 | 20.0 | 0.00 | 0.00 | 0.00 | 74 | 998.0 |
| 20260505085504 | 73 | 189 | 10.4 | 20.0 | 0.00 | 0.00 | 0.00 | 74 | 998.2 |
| 20260505085004 | 73 | 191 | 8.7 | 17.4 | 0.00 | 0.00 | 0.00 | 74 | 998.2 |
| 20260505084504 | 73 | 189 | 8.7 | 17.4 | 0.00 | 0.00 | 0.00 | 74 | 998.3 |
| 20260505084004 | 73 | 188 | 9.6 | 17.4 | 0.00 | 0.00 | 0.00 | 74 | 998.2 |
| 20260505083503 | 73 | 189 | 10.4 | 20.9 | 0.00 | 0.00 | 0.00 | 74 | 998.2 |
| 20260505083004 | 73 | 187 | 11.3 | 20.9 | 0.00 | 0.00 | 0.00 | 74 | 998.4 |
| 20260505082524 | 73 | 186 | 10.4 | 20.9 | 0.00 | 0.00 | 0.00 | 74 | 998.4 |
| 20260505082004 | 73 | 188 | 9.6 | 20.9 | 0.00 | 0.00 | 0.00 | 74 | 998.5 |
| 20260505081504 | 73 | 190 | 9.6 | 16.5 | 0.00 | 0.00 | 0.00 | 74 | 998.6 |
| 20260505081025 | 73 | 188 | 10.4 | 20.0 | 0.00 | 0.00 | 0.00 | 74 | 998.6 |
| 20260505080503 | 73 | 189 | 11.3 | 20.0 | 0.00 | 0.00 | 0.00 | 74 | 998.5 |
| 20260505080024 | 73 | 191 | 10.4 | 21.7 | 0.00 | 0.00 | 0.00 | 74 | 998.5 |
| 20260505075504 | 73 | 190 | 10.4 | 21.7 | 0.00 | 0.00 | 0.00 | 74 | 998.6 |
| 20260505075004 | 73 | 190 | 11.3 | 20.9 | 0.00 | 0.00 | 0.00 | 74 | 998.6 |
| 20260505074503 | 73 | 189 | 10.4 | 20.9 | 0.00 | 0.00 | 0.00 | 74 | 998.8 |
| 20260505074004 | 73 | 189 | 9.6 | 19.1 | 0.00 | 0.00 | 0.00 | 74 | 998.7 |
| 20260505073504 | 73 | 186 | 10.4 | 25.2 | 0.00 | 0.00 | 0.00 | 74 | 998.8 |
| 20260505073025 | 73 | 185 | 11.3 | 25.2 | 0.00 | 0.00 | 0.00 | 74 | 999.0 |
| 20260505072504 | 73 | 189 | 9.6 | 22.6 | 0.00 | 0.00 | 0.00 | 74 | 998.9 |
| 20260505072004 | 73 | 190 | 9.6 | 22.6 | 0.00 | 0.00 | 0.00 | 74 | 999.1 |
| 20260505071504 | 73 | 191 | 9.6 | 21.7 | 0.00 | 0.00 | 0.00 | 74 | 999.1 |
| 20260505071004 | 73 | 191 | 9.6 | 21.7 | 0.00 | 0.00 | 0.00 | 74 | 999.2 |
| 20260505070504 | 73 | 187 | 9.6 | 19.1 | 0.00 | 0.00 | 0.00 | 73 | 999.2 |
| 20260505070025 | 73 | 188 | 8.7 | 19.1 | 0.00 | 0.00 | 0.00 | 73 | 999.3 |
| 20260505065504 | 73 | 189 | 8.7 | 22.6 | 0.00 | 0.00 | 0.00 | 73 | 999.4 |
| 20260505065003 | 73 | 185 | 9.6 | 22.6 | 0.00 | 0.00 | 0.00 | 73 | 999.4 |
| 20260505064504 | 73 | 183 | 10.4 | 22.6 | 0.00 | 0.00 | 0.00 | 73 | 999.4 |
| 20260505064004 | 73 | 184 | 11.3 | 22.6 | 0.00 | 0.00 | 0.00 | 73 | 999.4 |
| 20260505063504 | 73 | 184 | 11.3 | 20.0 | 0.00 | 0.00 | 0.00 | 73 | 999.6 |
| 20260505063025 | 73 | 182 | 10.4 | 21.7 | 0.00 | 0.00 | 0.00 | 73 | 999.5 |
| 20260505062504 | 73 | 181 | 10.4 | 21.7 | 0.00 | 0.00 | 0.00 | 73 | 999.5 |
| 20260505062025 | 73 | 180 | 10.4 | 20.0 | 0.00 | 0.00 | 0.00 | 73 | 999.7 |
| 20260505061504 | 73 | 181 | 10.4 | 20.0 | 0.00 | 0.00 | 0.00 | 72 | 999.7 |
| 20260505061004 | 73 | 182 | 10.4 | 22.6 | 0.00 | 0.00 | 0.00 | 72 | 999.6 |
| 20260505060503 | 73 | 180 | 9.6 | 22.6 | 0.00 | 0.00 | 0.00 | 72 | 999.8 |
| 20260505060004 | 73 | 181 | 9.6 | 19.1 | 0.00 | 0.00 | 0.00 | 72 | 999.9 |
| 20260505055504 | 73 | 180 | 10.4 | 20.0 | 0.00 | 0.00 | 0.00 | 72 | 1000.0 |
| 20260505055004 | 73 | 180 | 10.4 | 20.0 | 0.00 | 0.00 | 0.00 | 72 | 1000.0 |
| 20260505054504 | 73 | 182 | 10.4 | 21.7 | 0.00 | 0.00 | 0.00 | 72 | 1000.0 |
| 20260505054003 | 73 | 183 | 11.3 | 21.7 | 0.00 | 0.00 | 0.00 | 72 | 1000.0 |
| 20260505053503 | 73 | 183 | 10.4 | 21.7 | 0.00 | 0.00 | 0.00 | 72 | 1000.0 |
| 20260505053003 | 74 | 184 | 11.3 | 21.7 | 0.00 | 0.00 | 0.00 | 71 | 1000.0 |
| 20260505052504 | 74 | 183 | 12.2 | 24.3 | 0.00 | 0.00 | 0.00 | 71 | 1000.1 |
| 20260505052003 | 74 | 179 | 12.2 | 24.3 | 0.00 | 0.00 | 0.00 | 71 | 1000.1 |
| 20260505051504 | 74 | 176 | 13.0 | 25.2 | 0.00 | 0.00 | 0.00 | 71 | 1000.1 |
| 20260505051003 | 74 | 178 | 12.2 | 25.2 | 0.00 | 0.00 | 0.00 | 71 | 1000.1 |
| 20260505050504 | 74 | 181 | 11.3 | 20.9 | 0.00 | 0.00 | 0.00 | 71 | 1000.3 |
| 20260505041504 | 74 | 175 | 11.3 | 20.9 | 0.00 | 0.00 | 0.00 | 70 | 1000.7 |
| 20260505041004 | 74 | 175 | 10.4 | 20.9 | 0.00 | 0.00 | 0.00 | 70 | 1000.7 |
| 20260505040504 | 75 | 176 | 9.6 | 19.1 | 0.00 | 0.00 | 0.00 | 69 | 1000.8 |
| 20260505040005 | 75 | 176 | 10.4 | 21.7 | 0.00 | 0.00 | 0.00 | 69 | 1000.8 |
| 20260505035503 | 75 | 176 | 11.3 | 21.7 | 0.00 | 0.00 | 0.00 | 69 | 1000.8 |
| 20260505035004 | 75 | 179 | 10.4 | 20.9 | 0.00 | 0.00 | 0.00 | 69 | 1000.9 |
| 20260505034504 | 75 | 179 | 10.4 | 20.9 | 0.00 | 0.00 | 0.00 | 69 | 1000.8 |
| 20260505034004 | 75 | 174 | 11.3 | 21.7 | 0.00 | 0.00 | 0.00 | 69 | 1000.7 |
| 20260505033504 | 75 | 171 | 11.3 | 21.7 | 0.00 | 0.00 | 0.00 | 68 | 1000.7 |
| 20260505033003 | 75 | 171 | 11.3 | 24.3 | 0.00 | 0.00 | 0.00 | 68 | 1000.9 |
| 20260505032525 | 76 | 173 | 11.3 | 24.3 | 0.00 | 0.00 | 0.00 | 68 | 1000.6 |
| 20260505032025 | 76 | 173 | 12.2 | 26.1 | 0.00 | 0.00 | 0.00 | 68 | 1000.6 |
| 20260505031504 | 76 | 170 | 12.2 | 26.1 | 0.00 | 0.00 | 0.00 | 67 | 1000.6 |
| 20260505031004 | 76 | 169 | 10.4 | 19.1 | 0.00 | 0.00 | 0.00 | 67 | 1000.5 |
| 20260505030504 | 76 | 170 | 11.3 | 19.1 | 0.00 | 0.00 | 0.00 | 67 | 1000.4 |
| 20260505030004 | 76 | 171 | 11.3 | 24.3 | 0.00 | 0.00 | 0.00 | 67 | 1000.5 |
| 20260505025504 | 76 | 172 | 13.0 | 25.2 | 0.00 | 0.00 | 0.00 | 67 | 1000.5 |